| time (UTC) | temp F | wind direction | speed MPH | gust MPH | rain 1hr in | rain 24hr in | rain mn in | humidity % | barometer mb |
| 20260507174803 | 66 | 212 | 4.0 | 15.0 | 0.00 | 0.00 | 0.00 | 51 | 1015.9 |
| 20260507174503 | 65 | 212 | 5.0 | 15.0 | 0.00 | 0.00 | 0.00 | 53 | 1016.0 |
| 20260507174203 | 65 | 211 | 5.0 | 15.0 | 0.00 | 0.00 | 0.00 | 53 | 1016.1 |
| 20260507173903 | 65 | 211 | 5.0 | 12.0 | 0.00 | 0.00 | 0.00 | 51 | 1016.1 |
| 20260507173603 | 65 | 212 | 5.0 | 19.0 | 0.00 | 0.00 | 0.00 | 51 | 1016.1 |
| 20260507173303 | 65 | 213 | 5.0 | 19.0 | 0.00 | 0.00 | 0.00 | 52 | 1016.2 |
| 20260507173004 | 65 | 217 | 5.0 | 19.0 | 0.00 | 0.00 | 0.00 | 51 | 1016.2 |
| 20260507172918 | 65 | 221 | 5.0 | 19.0 | 0.00 | 0.00 | 0.00 | 50 | 1016.2 |
| 20260507172403 | 65 | 222 | 5.0 | 13.0 | 0.00 | 0.00 | 0.00 | 52 | 1016.3 |
| 20260507172103 | 65 | 223 | 5.0 | 13.0 | 0.00 | 0.00 | 0.00 | 51 | 1016.4 |
| 20260507171803 | 65 | 213 | 4.0 | 13.0 | 0.00 | 0.00 | 0.00 | 54 | 1016.4 |
| 20260507171503 | 65 | 213 | 4.0 | 13.0 | 0.00 | 0.00 | 0.00 | 52 | 1016.6 |
| 20260507171417 | 65 | 214 | 4.0 | 13.0 | 0.00 | 0.00 | 0.00 | 52 | 1016.4 |
| 20260507170903 | 65 | 213 | 5.0 | 18.0 | 0.00 | 0.00 | 0.00 | 51 | 1016.4 |
| 20260507170603 | 65 | 212 | 6.0 | 18.0 | 0.00 | 0.00 | 0.00 | 53 | 1016.4 |
| 20260507170303 | 64 | 212 | 6.0 | 18.0 | 0.00 | 0.00 | 0.00 | 53 | 1016.5 |
| 20260507170003 | 65 | 213 | 5.0 | 18.0 | 0.00 | 0.00 | 0.00 | 51 | 1016.6 |
| 20260507165703 | 65 | 214 | 5.0 | 14.0 | 0.00 | 0.00 | 0.00 | 55 | 1016.7 |
| 20260507165403 | 65 | 216 | 5.0 | 14.0 | 0.00 | 0.00 | 0.00 | 52 | 1016.8 |
| 20260507165103 | 65 | 226 | 5.0 | 14.0 | 0.00 | 0.00 | 0.00 | 52 | 1016.8 |
| 20260507164803 | 65 | 227 | 6.0 | 14.0 | 0.00 | 0.00 | 0.00 | 51 | 1016.8 |
| 20260507164503 | 64 | 224 | 6.0 | 14.0 | 0.00 | 0.00 | 0.00 | 53 | 1016.8 |
| 20260507164203 | 64 | 214 | 5.0 | 14.0 | 0.00 | 0.00 | 0.00 | 52 | 1016.8 |
| 20260507163903 | 64 | 209 | 5.0 | 14.0 | 0.00 | 0.00 | 0.00 | 53 | 1016.9 |
| 20260507163603 | 64 | 214 | 6.0 | 15.0 | 0.00 | 0.00 | 0.00 | 52 | 1017.0 |
| 20260507163303 | 64 | 213 | 6.0 | 15.0 | 0.00 | 0.00 | 0.00 | 53 | 1017.0 |
| 20260507163003 | 64 | 215 | 7.0 | 19.0 | 0.00 | 0.00 | 0.00 | 54 | 1017.1 |
| 20260507162703 | 64 | 215 | 6.0 | 19.0 | 0.00 | 0.00 | 0.00 | 52 | 1017.0 |
| 20260507162403 | 64 | 221 | 5.0 | 19.0 | 0.00 | 0.00 | 0.00 | 52 | 1017.1 |
| 20260507162103 | 64 | 224 | 4.0 | 15.0 | 0.00 | 0.00 | 0.00 | 55 | 1017.0 |
| 20260507162017 | 64 | 224 | 4.0 | 11.0 | 0.00 | 0.00 | 0.00 | 53 | 1017.0 |
| 20260507161503 | 64 | 219 | 4.0 | 13.0 | 0.00 | 0.00 | 0.00 | 53 | 1017.0 |
| 20260507161203 | 64 | 221 | 4.0 | 13.0 | 0.00 | 0.00 | 0.00 | 54 | 1016.9 |
| 20260507161117 | 64 | 225 | 4.0 | 13.0 | 0.00 | 0.00 | 0.00 | 55 | 1016.9 |
| 20260507160603 | 63 | 226 | 4.0 | 13.0 | 0.00 | 0.00 | 0.00 | 53 | 1017.0 |
| 20260507160303 | 64 | 222 | 4.0 | 13.0 | 0.00 | 0.00 | 0.00 | 53 | 1017.0 |
| 20260507160003 | 63 | 223 | 4.0 | 11.0 | 0.00 | 0.00 | 0.00 | 55 | 1017.0 |
| 20260507155703 | 63 | 221 | 5.0 | 12.0 | 0.00 | 0.00 | 0.00 | 56 | 1017.0 |
| 20260507155403 | 62 | 221 | 5.0 | 13.0 | 0.00 | 0.00 | 0.00 | 55 | 1017.2 |
| 20260507155317 | 62 | 220 | 5.0 | 13.0 | 0.00 | 0.00 | 0.00 | 55 | 1017.2 |
| 20260507155017 | 62 | 215 | 5.0 | 13.0 | 0.00 | 0.00 | 0.00 | 56 | 1017.1 |
| 20260507154503 | 62 | 209 | 4.0 | 14.0 | 0.00 | 0.00 | 0.00 | 57 | 1017.2 |
| 20260507154203 | 61 | 210 | 4.0 | 14.0 | 0.00 | 0.00 | 0.00 | 57 | 1017.3 |
| 20260507153903 | 61 | 214 | 5.0 | 14.0 | 0.00 | 0.00 | 0.00 | 58 | 1017.3 |
| 20260507153603 | 61 | 217 | 5.0 | 14.0 | 0.00 | 0.00 | 0.00 | 58 | 1017.4 |
| 20260507153303 | 60 | 214 | 5.0 | 13.0 | 0.00 | 0.00 | 0.00 | 58 | 1017.3 |
| 20260507153218 | 60 | 215 | 6.0 | 13.0 | 0.00 | 0.00 | 0.00 | 58 | 1017.3 |
| 20260507152703 | 60 | 209 | 5.0 | 14.0 | 0.00 | 0.00 | 0.00 | 59 | 1017.4 |
| 20260507152403 | 60 | 209 | 6.0 | 14.0 | 0.00 | 0.00 | 0.00 | 59 | 1017.4 |
| 20260507152317 | 60 | 210 | 6.0 | 14.0 | 0.00 | 0.00 | 0.00 | 59 | 1017.4 |
| 20260507151803 | 60 | 209 | 5.0 | 14.0 | 0.00 | 0.00 | 0.00 | 60 | 1017.4 |
| 20260507151504 | 60 | 209 | 4.0 | 12.0 | 0.00 | 0.00 | 0.00 | 61 | 1017.4 |
| 20260507151203 | 60 | 210 | 4.0 | 12.0 | 0.00 | 0.00 | 0.00 | 63 | 1017.4 |
| 20260507150903 | 59 | 211 | 4.0 | 12.0 | 0.00 | 0.00 | 0.00 | 62 | 1017.4 |
| 20260507150603 | 59 | 210 | 4.0 | 12.0 | 0.00 | 0.00 | 0.00 | 63 | 1017.4 |
| 20260507150303 | 59 | 209 | 4.0 | 12.0 | 0.00 | 0.00 | 0.00 | 62 | 1017.5 |
| 20260507150217 | 59 | 208 | 4.0 | 12.0 | 0.00 | 0.00 | 0.00 | 63 | 1017.5 |
| 20260507145703 | 59 | 207 | 4.0 | 12.0 | 0.00 | 0.00 | 0.00 | 64 | 1017.5 |
| 20260507145403 | 59 | 208 | 3.0 | 8.0 | 0.00 | 0.00 | 0.00 | 64 | 1017.6 |
| 20260507145103 | 59 | 208 | 3.0 | 8.0 | 0.00 | 0.00 | 0.00 | 64 | 1017.6 |
| 20260507144803 | 59 | 207 | 2.0 | 7.0 | 0.00 | 0.00 | 0.00 | 65 | 1017.6 |
| 20260507144503 | 58 | 222 | 3.0 | 10.0 | 0.00 | 0.00 | 0.00 | 66 | 1017.6 |
| 20260507144203 | 58 | 218 | 3.0 | 10.0 | 0.00 | 0.00 | 0.00 | 65 | 1017.6 |
| 20260507144118 | 58 | 218 | 3.0 | 10.0 | 0.00 | 0.00 | 0.00 | 65 | 1017.6 |
| 20260507143603 | 57 | 218 | 3.0 | 10.0 | 0.00 | 0.00 | 0.00 | 68 | 1017.7 |
| 20260507143303 | 57 | 210 | 3.0 | 9.0 | 0.00 | 0.00 | 0.00 | 68 | 1017.6 |
| 20260507143003 | 56 | 208 | 3.0 | 9.0 | 0.00 | 0.00 | 0.00 | 67 | 1017.6 |
| 20260507142703 | 56 | 204 | 2.0 | 8.0 | 0.00 | 0.00 | 0.00 | 67 | 1017.6 |
| 20260507142403 | 56 | 199 | 2.0 | 6.0 | 0.00 | 0.00 | 0.00 | 69 | 1017.6 |
| 20260507142103 | 56 | 204 | 2.0 | 6.0 | 0.00 | 0.00 | 0.00 | 68 | 1017.6 |
| 20260507141803 | 56 | 215 | 2.0 | 6.0 | 0.00 | 0.00 | 0.00 | 70 | 1017.6 |
| 20260507141504 | 55 | 212 | 2.0 | 6.0 | 0.00 | 0.00 | 0.00 | 71 | 1017.7 |
| 20260507141418 | 55 | 213 | 2.0 | 6.0 | 0.00 | 0.00 | 0.00 | 71 | 1017.7 |
| 20260507140903 | 55 | 212 | 2.0 | 7.0 | 0.00 | 0.00 | 0.00 | 70 | 1017.7 |
| 20260507140603 | 55 | 223 | 3.0 | 8.0 | 0.00 | 0.00 | 0.00 | 70 | 1017.7 |
| 20260507140303 | 54 | 225 | 3.0 | 8.0 | 0.00 | 0.00 | 0.00 | 70 | 1017.7 |
| 20260507140003 | 54 | 223 | 3.0 | 8.0 | 0.00 | 0.00 | 0.00 | 70 | 1017.8 |
| 20260507135703 | 54 | 216 | 2.0 | 7.0 | 0.00 | 0.00 | 0.00 | 72 | 1017.8 |
| 20260507135403 | 54 | 225 | 3.0 | 7.0 | 0.00 | 0.00 | 0.00 | 71 | 1017.8 |
| 20260507135103 | 54 | 221 | 2.0 | 7.0 | 0.00 | 0.00 | 0.00 | 72 | 1017.8 |
| 20260507134803 | 54 | 216 | 2.0 | 7.0 | 0.00 | 0.00 | 0.00 | 72 | 1017.8 |
| 20260507134503 | 53 | 199 | 1.0 | 3.0 | 0.00 | 0.00 | 0.00 | 73 | 1017.8 |
| 20260507134203 | 53 | 199 | 1.0 | 3.0 | 0.00 | 0.00 | 0.00 | 74 | 1017.9 |
| 20260507133903 | 53 | 201 | 1.0 | 5.0 | 0.00 | 0.00 | 0.00 | 74 | 1017.9 |
| 20260507133604 | 52 | 205 | 2.0 | 8.0 | 0.00 | 0.00 | 0.00 | 74 | 1017.8 |
| 20260507133303 | 52 | 205 | 2.0 | 8.0 | 0.00 | 0.00 | 0.00 | 75 | 1017.9 |
| 20260507133217 | 52 | 205 | 2.0 | 8.0 | 0.00 | 0.00 | 0.00 | 75 | 1017.9 |
| 20260507132703 | 51 | 200 | 1.0 | 7.0 | 0.00 | 0.00 | 0.00 | 76 | 1017.9 |
| 20260507132403 | 51 | 200 | 1.0 | 4.0 | 0.00 | 0.00 | 0.00 | 77 | 1017.9 |
| 20260507132103 | 50 | 204 | 1.0 | 4.0 | 0.00 | 0.00 | 0.00 | 77 | 1017.9 |
| 20260507131803 | 50 | 205 | 1.0 | 4.0 | 0.00 | 0.00 | 0.00 | 78 | 1018.0 |
| 20260507131503 | 49 | 205 | 1.0 | 4.0 | 0.00 | 0.00 | 0.00 | 78 | 1018.0 |
| 20260507131203 | 49 | 199 | 1.0 | 4.0 | 0.00 | 0.00 | 0.00 | 78 | 1018.0 |
| 20260507131117 | 49 | 197 | 1.0 | 4.0 | 0.00 | 0.00 | 0.00 | 78 | 1018.0 |
| 20260507130603 | 48 | 206 | 1.0 | 7.0 | 0.00 | 0.00 | 0.00 | 79 | 1018.0 |
| 20260507130303 | 48 | 206 | 1.0 | 7.0 | 0.00 | 0.00 | 0.00 | 79 | 1018.0 |
| 20260507130003 | 47 | 209 | 1.0 | 7.0 | 0.00 | 0.00 | 0.00 | 79 | 1018.0 |
| 20260507125703 | 47 | 197 | 0.0 | 2.0 | 0.00 | 0.00 | 0.00 | 80 | 1018.1 |
| 20260507125403 | 47 | 196 | 0.0 | 2.0 | 0.00 | 0.00 | 0.00 | 80 | 1018.0 |
| 20260507125318 | 47 | 196 | 0.0 | 2.0 | 0.00 | 0.00 | 0.00 | 80 | 1018.0 |
| 20260507125018 | 46 | 195 | 0.0 | 3.0 | 0.00 | 0.00 | 0.00 | 81 | 1018.0 |
| 20260507124718 | 46 | 195 | 0.0 | 3.0 | 0.00 | 0.00 | 0.00 | 81 | 1018.0 |
| 20260507124203 | 46 | 198 | 1.0 | 3.0 | 0.00 | 0.00 | 0.00 | 82 | 1018.1 |
| 20260507123903 | 45 | 199 | 0.0 | 3.0 | 0.00 | 0.00 | 0.00 | 82 | 1018.1 |
| 20260507123603 | 45 | 198 | 0.0 | 3.0 | 0.00 | 0.00 | 0.00 | 83 | 1018.0 |
| 20260507123303 | 45 | 194 | 0.0 | 2.0 | 0.00 | 0.00 | 0.00 | 83 | 1018.0 |
| 20260507123003 | 44 | 194 | 0.0 | 2.0 | 0.00 | 0.00 | 0.00 | 83 | 1018.0 |
| 20260507122705 | 44 | 194 | 0.0 | 2.0 | 0.00 | 0.00 | 0.00 | 83 | 1018.0 |
| 20260507122618 | 44 | 194 | 0.0 | 1.0 | 0.00 | 0.00 | 0.00 | 84 | 1018.0 |
| 20260507122318 | 44 | 195 | 0.0 | 1.0 | 0.00 | 0.00 | 0.00 | 84 | 1018.0 |
| 20260507121803 | 44 | 196 | 0.0 | 2.0 | 0.00 | 0.00 | 0.00 | 84 | 1017.9 |
| 20260507121503 | 43 | 196 | 0.0 | 2.0 | 0.00 | 0.00 | 0.00 | 85 | 1017.9 |
| 20260507121203 | 43 | 195 | 0.0 | 1.0 | 0.00 | 0.00 | 0.00 | 85 | 1017.9 |
| 20260507120903 | 43 | 197 | 0.0 | 2.0 | 0.00 | 0.00 | 0.00 | 85 | 1017.9 |
| 20260507120603 | 43 | 198 | 0.0 | 2.0 | 0.00 | 0.00 | 0.00 | 85 | 1017.9 |
| 20260507120303 | 43 | 197 | 0.0 | 2.0 | 0.00 | 0.00 | 0.00 | 86 | 1017.9 |
| 20260507120004 | 42 | 189 | 0.0 | 2.0 | 0.00 | 0.00 | 0.00 | 86 | 1017.9 |
| 20260507115703 | 42 | 189 | 0.0 | 2.0 | 0.00 | 0.00 | 0.00 | 86 | 1017.9 |
| 20260507115403 | 42 | 189 | 0.0 | 2.0 | 0.00 | 0.00 | 0.00 | 87 | 1017.9 |
| 20260507115103 | 42 | 188 | 0.0 | 1.0 | 0.00 | 0.00 | 0.00 | 87 | 1017.9 |
| 20260507115018 | 42 | 188 | 0.0 | 1.0 | 0.00 | 0.00 | 0.00 | 87 | 1017.9 |
| 20260507114503 | 42 | 188 | 0.0 | 1.0 | 0.00 | 0.00 | 0.00 | 88 | 1017.8 |
| 20260507114203 | 42 | 188 | 0.0 | 1.0 | 0.00 | 0.00 | 0.00 | 88 | 1017.8 |
| 20260507113903 | 41 | 188 | 0.0 | 1.0 | 0.00 | 0.00 | 0.00 | 88 | 1017.8 |
| 20260507113603 | 41 | 0 | 0.0 | 0.0 | 0.00 | 0.00 | 0.00 | 88 | 1017.8 |
| 20260507113303 | 41 | 0 | 0.0 | 0.0 | 0.00 | 0.00 | 0.00 | 88 | 1017.8 |
| 20260507113004 | 41 | 0 | 0.0 | 0.0 | 0.00 | 0.00 | 0.00 | 88 | 1017.7 |
| 20260507112703 | 42 | 0 | 0.0 | 0.0 | 0.00 | 0.00 | 0.00 | 88 | 1017.7 |
| 20260507112403 | 42 | 0 | 0.0 | 0.0 | 0.00 | 0.00 | 0.00 | 88 | 1017.7 |
| 20260507112103 | 42 | 0 | 0.0 | 0.0 | 0.00 | 0.00 | 0.00 | 88 | 1017.7 |
| 20260507111803 | 42 | 0 | 0.0 | 0.0 | 0.00 | 0.00 | 0.00 | 88 | 1017.7 |
| 20260507111504 | 42 | 0 | 0.0 | 0.0 | 0.00 | 0.00 | 0.00 | 88 | 1017.7 |
| 20260507111203 | 42 | 0 | 0.0 | 0.0 | 0.00 | 0.00 | 0.00 | 88 | 1017.6 |
| 20260507110903 | 42 | 0 | 0.0 | 0.0 | 0.00 | 0.00 | 0.00 | 88 | 1017.6 |
| 20260507110603 | 42 | 0 | 0.0 | 0.0 | 0.00 | 0.00 | 0.00 | 87 | 1017.5 |
| 20260507110518 | 42 | 0 | 0.0 | 0.0 | 0.00 | 0.00 | 0.00 | 87 | 1017.5 |
| 20260507110003 | 42 | 185 | 0.0 | 2.0 | 0.00 | 0.00 | 0.00 | 87 | 1017.6 |
| 20260507105703 | 42 | 183 | 0.0 | 2.0 | 0.00 | 0.00 | 0.00 | 88 | 1017.5 |
| 20260507105403 | 42 | 182 | 0.0 | 2.0 | 0.00 | 0.00 | 0.00 | 88 | 1017.6 |
| 20260507105103 | 42 | 172 | 0.0 | 1.0 | 0.00 | 0.00 | 0.00 | 88 | 1017.5 |
| 20260507104803 | 41 | 170 | 0.0 | 1.0 | 0.00 | 0.00 | 0.00 | 88 | 1017.6 |
| 20260507104503 | 41 | 0 | 0.0 | 0.0 | 0.00 | 0.00 | 0.00 | 89 | 1017.6 |
| 20260507104204 | 41 | 0 | 0.0 | 0.0 | 0.00 | 0.00 | 0.00 | 89 | 1017.6 |
| 20260507103903 | 41 | 0 | 0.0 | 0.0 | 0.00 | 0.00 | 0.00 | 89 | 1017.5 |
| 20260507103603 | 41 | 0 | 0.0 | 0.0 | 0.00 | 0.00 | 0.00 | 90 | 1017.6 |
| 20260507103303 | 41 | 0 | 0.0 | 0.0 | 0.00 | 0.00 | 0.00 | 90 | 1017.6 |
| 20260507103003 | 41 | 0 | 0.0 | 0.0 | 0.00 | 0.00 | 0.00 | 90 | 1017.6 |
| 20260507102703 | 41 | 0 | 0.0 | 0.0 | 0.00 | 0.00 | 0.00 | 90 | 1017.6 |
| 20260507102403 | 41 | 0 | 0.0 | 0.0 | 0.00 | 0.00 | 0.00 | 89 | 1017.6 |
| 20260507102103 | 41 | 0 | 0.0 | 0.0 | 0.00 | 0.00 | 0.00 | 89 | 1017.6 |
| 20260507102017 | 41 | 0 | 0.0 | 0.0 | 0.00 | 0.00 | 0.00 | 89 | 1017.6 |
| 20260507101503 | 42 | 0 | 0.0 | 0.0 | 0.00 | 0.00 | 0.00 | 89 | 1017.7 |
| 20260507101203 | 42 | 0 | 0.0 | 0.0 | 0.00 | 0.00 | 0.00 | 88 | 1017.7 |
| 20260507100903 | 42 | 0 | 0.0 | 0.0 | 0.00 | 0.00 | 0.00 | 88 | 1017.8 |
| 20260507100603 | 42 | 0 | 0.0 | 0.0 | 0.00 | 0.00 | 0.00 | 88 | 1017.8 |
| 20260507100303 | 42 | 0 | 0.0 | 0.0 | 0.00 | 0.00 | 0.00 | 87 | 1017.9 |
| 20260507100003 | 42 | 0 | 0.0 | 0.0 | 0.00 | 0.00 | 0.00 | 87 | 1017.9 |
| 20260507095703 | 42 | 0 | 0.0 | 0.0 | 0.00 | 0.00 | 0.00 | 87 | 1017.9 |
| 20260507095403 | 42 | 200 | 0.0 | 2.0 | 0.00 | 0.00 | 0.00 | 87 | 1017.9 |
| 20260507095103 | 42 | 203 | 0.0 | 2.0 | 0.00 | 0.00 | 0.00 | 87 | 1017.9 |
| 20260507094803 | 43 | 202 | 0.0 | 2.0 | 0.00 | 0.00 | 0.00 | 87 | 1017.9 |
| 20260507094503 | 43 | 203 | 0.0 | 2.0 | 0.00 | 0.00 | 0.00 | 88 | 1017.9 |
| 20260507094203 | 43 | 198 | 0.0 | 2.0 | 0.00 | 0.00 | 0.00 | 87 | 1018.0 |
| 20260507093903 | 43 | 198 | 0.0 | 2.0 | 0.00 | 0.00 | 0.00 | 87 | 1017.9 |
| 20260507093603 | 43 | 198 | 0.0 | 2.0 | 0.00 | 0.00 | 0.00 | 87 | 1018.0 |
| 20260507093303 | 43 | 191 | 0.0 | 1.0 | 0.00 | 0.00 | 0.00 | 87 | 1018.0 |
| 20260507093217 | 43 | 191 | 0.0 | 1.0 | 0.00 | 0.00 | 0.00 | 87 | 1018.0 |
| 20260507092703 | 43 | 191 | 0.0 | 1.0 | 0.00 | 0.00 | 0.00 | 87 | 1018.0 |
| 20260507092403 | 43 | 191 | 0.0 | 1.0 | 0.00 | 0.00 | 0.00 | 87 | 1018.0 |
| 20260507092103 | 43 | 198 | 0.0 | 2.0 | 0.00 | 0.00 | 0.00 | 87 | 1018.0 |
| 20260507092016 | 43 | 198 | 0.0 | 2.0 | 0.00 | 0.00 | 0.00 | 86 | 1018.0 |
| 20260507091503 | 43 | 198 | 0.0 | 2.0 | 0.00 | 0.00 | 0.00 | 86 | 1018.0 |
| 20260507091203 | 43 | 197 | 0.0 | 2.0 | 0.00 | 0.00 | 0.00 | 86 | 1018.0 |
| 20260507091118 | 43 | 196 | 0.0 | 2.0 | 0.00 | 0.00 | 0.00 | 86 | 1018.0 |
| 20260507090603 | 43 | 192 | 0.0 | 2.0 | 0.00 | 0.00 | 0.00 | 86 | 1018.0 |
| 20260507090303 | 43 | 185 | 0.0 | 2.0 | 0.00 | 0.00 | 0.00 | 86 | 1017.9 |
| 20260507090004 | 43 | 183 | 0.0 | 2.0 | 0.00 | 0.00 | 0.00 | 87 | 1017.9 |
| 20260507085917 | 43 | 183 | 0.0 | 2.0 | 0.00 | 0.00 | 0.00 | 87 | 1018.0 |
| 20260507085617 | 43 | 182 | 0.0 | 2.0 | 0.00 | 0.00 | 0.00 | 87 | 1018.0 |
| 20260507084503 | 43 | 179 | 0.0 | 1.0 | 0.00 | 0.00 | 0.00 | 88 | 1017.9 |
| 20260507084418 | 43 | 182 | 0.0 | 1.0 | 0.00 | 0.00 | 0.00 | 88 | 1017.9 |
| 20260507083903 | 43 | 191 | 0.0 | 1.0 | 0.00 | 0.00 | 0.00 | 88 | 1017.8 |
| 20260507083817 | 43 | 191 | 0.0 | 1.0 | 0.00 | 0.00 | 0.00 | 88 | 1017.9 |
| 20260507083303 | 43 | 198 | 0.0 | 2.0 | 0.00 | 0.00 | 0.00 | 89 | 1017.9 |
| 20260507083004 | 43 | 198 | 0.0 | 2.0 | 0.00 | 0.01 | 0.00 | 89 | 1017.9 |
| 20260507082703 | 43 | 195 | 0.0 | 1.0 | 0.00 | 0.01 | 0.00 | 89 | 1017.9 |
| 20260507082403 | 43 | 197 | 0.0 | 2.0 | 0.00 | 0.01 | 0.00 | 89 | 1017.9 |
| 20260507082103 | 43 | 195 | 0.0 | 2.0 | 0.00 | 0.01 | 0.00 | 90 | 1018.0 |
| 20260507082018 | 43 | 195 | 0.0 | 2.0 | 0.00 | 0.01 | 0.00 | 90 | 1018.0 |
| 20260507081503 | 43 | 192 | 0.0 | 2.0 | 0.00 | 0.01 | 0.00 | 90 | 1018.0 |
| 20260507081203 | 43 | 187 | 0.0 | 1.0 | 0.00 | 0.01 | 0.00 | 90 | 1018.0 |
| 20260507080903 | 43 | 0 | 0.0 | 0.0 | 0.00 | 0.02 | 0.00 | 90 | 1018.0 |
| 20260507080603 | 43 | 0 | 0.0 | 0.0 | 0.00 | 0.02 | 0.00 | 91 | 1018.0 |
| 20260507080517 | 43 | 0 | 0.0 | 0.0 | 0.00 | 0.02 | 0.00 | 91 | 1018.0 |
| 20260507080219 | 43 | 0 | 0.0 | 0.0 | 0.00 | 0.02 | 0.00 | 91 | 1018.0 |
| 20260507075918 | 43 | 0 | 0.0 | 0.0 | 0.00 | 0.02 | 0.00 | 91 | 1018.0 |
| 20260507075403 | 43 | 181 | 0.0 | 1.0 | 0.00 | 0.02 | 0.00 | 91 | 1018.0 |
| 20260507075103 | 43 | 181 | 0.0 | 1.0 | 0.00 | 0.02 | 0.00 | 91 | 1017.9 |
| 20260507074803 | 43 | 181 | 0.0 | 1.0 | 0.00 | 0.02 | 0.00 | 91 | 1018.0 |
| 20260507074718 | 43 | 181 | 0.0 | 1.0 | 0.00 | 0.02 | 0.00 | 91 | 1018.0 |
| 20260507074203 | 43 | 0 | 0.0 | 0.0 | 0.00 | 0.02 | 0.00 | 90 | 1018.1 |
| 20260507073903 | 43 | 0 | 0.0 | 0.0 | 0.00 | 0.02 | 0.00 | 90 | 1018.0 |
| 20260507073603 | 43 | 0 | 0.0 | 0.0 | 0.00 | 0.02 | 0.00 | 90 | 1018.1 |
| 20260507073303 | 43 | 0 | 0.0 | 0.0 | 0.00 | 0.02 | 0.00 | 90 | 1018.1 |
| 20260507073003 | 43 | 0 | 0.0 | 0.0 | 0.00 | 0.02 | 0.00 | 89 | 1018.1 |
| 20260507072703 | 43 | 0 | 0.0 | 0.0 | 0.00 | 0.02 | 0.00 | 89 | 1018.1 |
| 20260507072403 | 43 | 0 | 0.0 | 0.0 | 0.00 | 0.02 | 0.00 | 89 | 1018.1 |
| 20260507072103 | 43 | 0 | 0.0 | 0.0 | 0.00 | 0.02 | 0.00 | 89 | 1018.1 |
| 20260507071804 | 44 | 0 | 0.0 | 0.0 | 0.00 | 0.02 | 0.00 | 88 | 1018.1 |
| 20260507071717 | 44 | 0 | 0.0 | 0.0 | 0.00 | 0.02 | 0.00 | 88 | 1018.1 |
| 20260507071203 | 44 | 0 | 0.0 | 0.0 | 0.00 | 0.02 | 0.00 | 87 | 1018.2 |
| 20260507070903 | 44 | 0 | 0.0 | 0.0 | 0.00 | 0.02 | 0.00 | 87 | 1018.2 |
| 20260507070818 | 44 | 0 | 0.0 | 0.0 | 0.00 | 0.02 | 0.00 | 87 | 1018.2 |
| 20260507070303 | 44 | 0 | 0.0 | 0.0 | 0.00 | 0.02 | 0.00 | 86 | 1018.3 |
| 20260507070218 | 44 | 0 | 0.0 | 0.0 | 0.00 | 0.02 | 0.00 | 86 | 1018.3 |
| 20260507065703 | 45 | 192 | 0.0 | 1.0 | 0.00 | 0.02 | 0.00 | 86 | 1018.3 |
| 20260507065403 | 45 | 193 | 0.0 | 1.0 | 0.00 | 0.03 | 0.00 | 86 | 1018.4 |
| 20260507065103 | 45 | 194 | 0.0 | 1.0 | 0.00 | 0.03 | 0.00 | 86 | 1018.4 |
| 20260507064803 | 45 | 195 | 0.0 | 1.0 | 0.00 | 0.03 | 0.00 | 87 | 1018.4 |
| 20260507064717 | 45 | 195 | 0.0 | 1.0 | 0.00 | 0.03 | 0.00 | 87 | 1018.5 |
| 20260507064203 | 45 | 195 | 0.0 | 2.0 | 0.00 | 0.03 | 0.00 | 87 | 1018.5 |
| 20260507063903 | 45 | 194 | 0.0 | 2.0 | 0.00 | 0.03 | 0.00 | 87 | 1018.5 |
| 20260507063603 | 45 | 194 | 0.0 | 2.0 | 0.00 | 0.03 | 0.00 | 87 | 1018.5 |
| 20260507063518 | 45 | 194 | 0.0 | 2.0 | 0.00 | 0.03 | 0.00 | 87 | 1018.5 |
| 20260507063003 | 44 | 0 | 0.0 | 0.0 | 0.00 | 0.03 | 0.00 | 88 | 1018.5 |
| 20260507062703 | 44 | 0 | 0.0 | 0.0 | 0.00 | 0.03 | 0.00 | 88 | 1018.5 |
| 20260507062403 | 44 | 188 | 0.0 | 1.0 | 0.00 | 0.03 | 0.00 | 88 | 1018.5 |
| 20260507062103 | 44 | 188 | 0.0 | 1.0 | 0.00 | 0.03 | 0.00 | 89 | 1018.6 |
| 20260507061803 | 44 | 188 | 0.0 | 1.0 | 0.00 | 0.03 | 0.00 | 89 | 1018.6 |
| 20260507061503 | 44 | 0 | 0.0 | 0.0 | 0.00 | 0.03 | 0.00 | 90 | 1018.5 |
| 20260507061203 | 44 | 0 | 0.0 | 0.0 | 0.00 | 0.03 | 0.00 | 90 | 1018.6 |
| 20260507061118 | 44 | 188 | 0.0 | 1.0 | 0.00 | 0.03 | 0.00 | 90 | 1018.6 |
| 20260507060603 | 44 | 188 | 0.0 | 1.0 | 0.00 | 0.03 | 0.00 | 90 | 1018.7 |
| 20260507060303 | 44 | 188 | 0.0 | 1.0 | 0.00 | 0.03 | 0.00 | 90 | 1018.7 |
| 20260507060003 | 44 | 188 | 0.0 | 1.0 | 0.00 | 0.03 | 0.00 | 90 | 1018.7 |
| 20260507055703 | 44 | 188 | 0.0 | 1.0 | 0.00 | 0.03 | 0.00 | 90 | 1018.7 |
| 20260507055403 | 44 | 188 | 0.0 | 1.0 | 0.00 | 0.03 | 0.00 | 90 | 1018.7 |
| 20260507055317 | 44 | 188 | 0.0 | 1.0 | 0.00 | 0.03 | 0.00 | 90 | 1018.7 |
| 20260507054803 | 44 | 0 | 0.0 | 0.0 | 0.00 | 0.03 | 0.00 | 90 | 1018.7 |
| 20260507054503 | 44 | 0 | 0.0 | 0.0 | 0.00 | 0.03 | 0.00 | 89 | 1018.7 |
| 20260507054203 | 44 | 0 | 0.0 | 0.0 | 0.00 | 0.03 | 0.00 | 89 | 1018.7 |
| 20260507053903 | 44 | 0 | 0.0 | 0.0 | 0.00 | 0.03 | 0.00 | 89 | 1018.7 |
| 20260507053603 | 44 | 0 | 0.0 | 0.0 | 0.00 | 0.03 | 0.00 | 89 | 1018.7 |
| 20260507053303 | 44 | 0 | 0.0 | 0.0 | 0.00 | 0.03 | 0.00 | 89 | 1018.7 |
| 20260507053003 | 44 | 0 | 0.0 | 0.0 | 0.00 | 0.03 | 0.00 | 89 | 1018.7 |
| 20260507052703 | 44 | 0 | 0.0 | 0.0 | 0.00 | 0.03 | 0.00 | 89 | 1018.7 |
| 20260507052403 | 44 | 0 | 0.0 | 0.0 | 0.00 | 0.03 | 0.00 | 88 | 1018.7 |
| 20260507052103 | 44 | 0 | 0.0 | 0.0 | 0.00 | 0.03 | 0.00 | 87 | 1018.6 |
| 20260507051803 | 44 | 0 | 0.0 | 0.0 | 0.00 | 0.03 | 0.00 | 87 | 1018.6 |
| 20260507051503 | 44 | 0 | 0.0 | 0.0 | 0.00 | 0.03 | 0.00 | 87 | 1018.7 |
| 20260507051203 | 45 | 0 | 0.0 | 0.0 | 0.00 | 0.03 | 0.00 | 86 | 1018.7 |
| 20260507050903 | 45 | 0 | 0.0 | 0.0 | 0.00 | 0.03 | 0.00 | 85 | 1018.7 |
| 20260507050818 | 45 | 0 | 0.0 | 0.0 | 0.00 | 0.03 | 0.00 | 85 | 1018.7 |
| 20260507050518 | 45 | 0 | 0.0 | 0.0 | 0.00 | 0.03 | 0.00 | 84 | 1018.5 |
| 20260507050003 | 46 | 188 | 0.0 | 1.0 | 0.00 | 0.03 | 0.00 | 84 | 1018.6 |
| 20260507045703 | 46 | 188 | 0.0 | 1.0 | 0.00 | 0.03 | 0.03 | 84 | 1018.6 |
| 20260507045403 | 46 | 188 | 0.0 | 1.0 | 0.00 | 0.03 | 0.03 | 83 | 1018.7 |
| 20260507045103 | 46 | 188 | 0.0 | 1.0 | 0.00 | 0.03 | 0.03 | 83 | 1018.8 |
| 20260507044803 | 46 | 188 | 0.0 | 1.0 | 0.00 | 0.03 | 0.03 | 84 | 1018.8 |
| 20260507044503 | 46 | 188 | 0.0 | 1.0 | 0.00 | 0.03 | 0.03 | 84 | 1018.8 |
| 20260507044203 | 46 | 188 | 0.0 | 1.0 | 0.00 | 0.03 | 0.03 | 83 | 1018.8 |
| 20260507043903 | 46 | 188 | 0.0 | 1.0 | 0.00 | 0.03 | 0.03 | 83 | 1018.7 |
| 20260507043603 | 46 | 0 | 0.0 | 0.0 | 0.00 | 0.03 | 0.03 | 83 | 1018.7 |
| 20260507043303 | 46 | 0 | 0.0 | 0.0 | 0.00 | 0.03 | 0.03 | 83 | 1018.7 |
| 20260507043003 | 46 | 0 | 0.0 | 0.0 | 0.00 | 0.03 | 0.03 | 82 | 1018.6 |
| 20260507042703 | 46 | 0 | 0.0 | 0.0 | 0.00 | 0.03 | 0.03 | 81 | 1018.7 |
| 20260507042403 | 47 | 0 | 0.0 | 0.0 | 0.00 | 0.03 | 0.03 | 80 | 1018.7 |
| 20260507042103 | 47 | 0 | 0.0 | 0.0 | 0.00 | 0.03 | 0.03 | 80 | 1018.7 |
| 20260507041803 | 47 | 0 | 0.0 | 0.0 | 0.00 | 0.03 | 0.03 | 80 | 1018.7 |
| 20260507041503 | 47 | 198 | 0.0 | 2.0 | 0.00 | 0.03 | 0.03 | 79 | 1018.7 |
| 20260507041203 | 47 | 196 | 0.0 | 2.0 | 0.00 | 0.03 | 0.03 | 79 | 1018.7 |
| 20260507040903 | 48 | 192 | 0.0 | 2.0 | 0.00 | 0.03 | 0.03 | 79 | 1018.8 |
| 20260507040603 | 47 | 174 | 0.0 | 1.0 | 0.00 | 0.03 | 0.03 | 78 | 1018.8 |
| 20260507040303 | 47 | 170 | 0.0 | 1.0 | 0.00 | 0.03 | 0.03 | 77 | 1018.9 |
| 20260507040003 | 47 | 170 | 0.0 | 1.0 | 0.00 | 0.03 | 0.03 | 76 | 1018.9 |
| 20260507035703 | 47 | 170 | 0.0 | 1.0 | 0.00 | 0.03 | 0.03 | 76 | 1019.0 |
| 20260507035617 | 47 | 170 | 0.0 | 1.0 | 0.00 | 0.03 | 0.03 | 76 | 1019.0 |
| 20260507035316 | 47 | 170 | 0.0 | 1.0 | 0.00 | 0.03 | 0.03 | 76 | 1019.0 |
| 20260507034803 | 47 | 170 | 0.0 | 1.0 | 0.00 | 0.03 | 0.03 | 77 | 1019.0 |
| 20260507034503 | 47 | 0 | 0.0 | 0.0 | 0.00 | 0.03 | 0.03 | 77 | 1019.0 |
| 20260507034203 | 47 | 0 | 0.0 | 0.0 | 0.00 | 0.03 | 0.03 | 77 | 1019.0 |
| 20260507033903 | 47 | 0 | 0.0 | 0.0 | 0.00 | 0.03 | 0.03 | 75 | 1019.0 |
| 20260507033603 | 47 | 0 | 0.0 | 0.0 | 0.00 | 0.03 | 0.03 | 75 | 1018.9 |
| 20260507033517 | 47 | 0 | 0.0 | 0.0 | 0.00 | 0.03 | 0.03 | 74 | 1018.9 |
| 20260507033003 | 48 | 0 | 0.0 | 0.0 | 0.00 | 0.03 | 0.03 | 73 | 1018.9 |
| 20260507032703 | 48 | 0 | 0.0 | 0.0 | 0.00 | 0.03 | 0.03 | 71 | 1018.9 |
| 20260507032403 | 48 | 0 | 0.0 | 0.0 | 0.00 | 0.03 | 0.03 | 69 | 1018.8 |
| 20260507032103 | 48 | 0 | 0.0 | 0.0 | 0.00 | 0.03 | 0.03 | 69 | 1018.8 |
| 20260507031803 | 48 | 0 | 0.0 | 0.0 | 0.00 | 0.03 | 0.03 | 69 | 1018.8 |
| 20260507031503 | 48 | 0 | 0.0 | 0.0 | 0.00 | 0.03 | 0.03 | 70 | 1018.7 |
| 20260507031203 | 48 | 0 | 0.0 | 0.0 | 0.00 | 0.03 | 0.03 | 70 | 1018.7 |
| 20260507030903 | 48 | 0 | 0.0 | 0.0 | 0.00 | 0.03 | 0.03 | 70 | 1018.7 |
| 20260507030603 | 48 | 0 | 0.0 | 0.0 | 0.00 | 0.03 | 0.03 | 69 | 1018.7 |
| 20260507030303 | 48 | 0 | 0.0 | 0.0 | 0.00 | 0.03 | 0.03 | 69 | 1018.7 |
| 20260507030003 | 48 | 0 | 0.0 | 0.0 | 0.00 | 0.03 | 0.03 | 69 | 1018.6 |
| 20260507025703 | 48 | 0 | 0.0 | 0.0 | 0.00 | 0.03 | 0.03 | 70 | 1018.6 |
| 20260507025403 | 48 | 0 | 0.0 | 0.0 | 0.00 | 0.03 | 0.03 | 69 | 1018.7 |
| 20260507025103 | 49 | 0 | 0.0 | 0.0 | 0.00 | 0.03 | 0.03 | 69 | 1018.7 |
| 20260507024803 | 49 | 0 | 0.0 | 0.0 | 0.00 | 0.03 | 0.03 | 70 | 1018.7 |
| 20260507024503 | 49 | 0 | 0.0 | 0.0 | 0.00 | 0.03 | 0.03 | 70 | 1018.6 |
| 20260507024203 | 49 | 0 | 0.0 | 0.0 | 0.00 | 0.03 | 0.03 | 68 | 1018.5 |
| 20260507023903 | 49 | 0 | 0.0 | 0.0 | 0.00 | 0.03 | 0.03 | 68 | 1018.5 |
| 20260507023817 | 49 | 0 | 0.0 | 0.0 | 0.00 | 0.03 | 0.03 | 66 | 1018.5 |
| 20260507023303 | 50 | 0 | 0.0 | 0.0 | 0.00 | 0.03 | 0.03 | 64 | 1018.5 |
| 20260507023219 | 50 | 0 | 0.0 | 0.0 | 0.00 | 0.03 | 0.03 | 64 | 1018.5 |
| 20260507022918 | 50 | 0 | 0.0 | 0.0 | 0.00 | 0.03 | 0.03 | 63 | 1018.5 |
| 20260507022403 | 50 | 0 | 0.0 | 0.0 | 0.00 | 0.03 | 0.03 | 61 | 1018.5 |
| 20260507022103 | 51 | 0 | 0.0 | 0.0 | 0.00 | 0.03 | 0.03 | 61 | 1018.5 |
| 20260507021803 | 51 | 0 | 0.0 | 0.0 | 0.00 | 0.03 | 0.03 | 59 | 1018.4 |
| 20260507021503 | 51 | 0 | 0.0 | 0.0 | 0.00 | 0.03 | 0.03 | 57 | 1018.4 |
| 20260507021203 | 52 | 0 | 0.0 | 0.0 | 0.00 | 0.03 | 0.03 | 57 | 1018.4 |
| 20260507021117 | 52 | 0 | 0.0 | 0.0 | 0.00 | 0.03 | 0.03 | 57 | 1018.4 |
| 20260507020603 | 52 | 0 | 0.0 | 0.0 | 0.00 | 0.03 | 0.03 | 58 | 1018.3 |
| 20260507020303 | 52 | 0 | 0.0 | 0.0 | 0.00 | 0.03 | 0.03 | 57 | 1018.3 |
| 20260507020003 | 52 | 0 | 0.0 | 0.0 | 0.00 | 0.03 | 0.03 | 55 | 1018.3 |
| 20260507015703 | 53 | 169 | 0.0 | 1.0 | 0.00 | 0.03 | 0.03 | 55 | 1018.2 |
| 20260507015403 | 53 | 169 | 0.0 | 1.0 | 0.00 | 0.03 | 0.03 | 55 | 1018.2 |
| 20260507015103 | 53 | 169 | 0.0 | 1.0 | 0.00 | 0.03 | 0.03 | 54 | 1018.1 |
| 20260507015017 | 53 | 169 | 0.0 | 1.0 | 0.00 | 0.03 | 0.03 | 54 | 1018.1 |
| 20260507014503 | 53 | 0 | 0.0 | 0.0 | 0.00 | 0.03 | 0.03 | 54 | 1018.1 |
| 20260507014203 | 54 | 0 | 0.0 | 0.0 | 0.00 | 0.03 | 0.03 | 54 | 1018.1 |
| 20260507013903 | 54 | 0 | 0.0 | 0.0 | 0.00 | 0.03 | 0.03 | 54 | 1018.0 |
| 20260507013603 | 54 | 0 | 0.0 | 0.0 | 0.00 | 0.03 | 0.03 | 53 | 1018.0 |
| 20260507013303 | 55 | 0 | 0.0 | 0.0 | 0.00 | 0.03 | 0.03 | 52 | 1018.0 |
| 20260507013003 | 55 | 0 | 0.0 | 0.0 | 0.00 | 0.03 | 0.03 | 51 | 1018.0 |
| 20260507012918 | 55 | 0 | 0.0 | 0.0 | 0.00 | 0.03 | 0.03 | 51 | 1018.0 |
| 20260507012403 | 56 | 169 | 0.0 | 1.0 | 0.00 | 0.03 | 0.03 | 49 | 1018.0 |
| 20260507012317 | 56 | 169 | 0.0 | 1.0 | 0.00 | 0.03 | 0.03 | 49 | 1017.9 |
| 20260507012017 | 56 | 169 | 0.0 | 1.0 | 0.00 | 0.03 | 0.03 | 49 | 1017.9 |
| 20260507011503 | 56 | 169 | 0.0 | 1.0 | 0.00 | 0.03 | 0.03 | 47 | 1017.8 |
| 20260507011203 | 57 | 169 | 0.0 | 1.0 | 0.00 | 0.03 | 0.03 | 47 | 1017.7 |
| 20260507010903 | 57 | 168 | 0.0 | 1.0 | 0.00 | 0.03 | 0.03 | 46 | 1017.7 |
| 20260507010816 | 57 | 168 | 0.0 | 1.0 | 0.00 | 0.03 | 0.03 | 46 | 1017.7 |
| 20260507010303 | 58 | 188 | 0.0 | 1.0 | 0.00 | 0.03 | 0.03 | 44 | 1017.7 |
| 20260507010003 | 58 | 183 | 0.0 | 2.0 | 0.00 | 0.03 | 0.03 | 44 | 1017.7 |
| 20260507005703 | 59 | 179 | 1.0 | 3.0 | 0.00 | 0.03 | 0.03 | 44 | 1017.7 |
| 20260507005403 | 59 | 177 | 1.0 | 3.0 | 0.00 | 0.03 | 0.03 | 43 | 1017.7 |
| 20260507005103 | 60 | 173 | 0.0 | 3.0 | 0.00 | 0.03 | 0.03 | 42 | 1017.7 |
| 20260507004803 | 60 | 178 | 0.0 | 2.0 | 0.00 | 0.03 | 0.03 | 42 | 1017.7 |
| 20260507004717 | 60 | 181 | 0.0 | 2.0 | 0.00 | 0.03 | 0.03 | 42 | 1017.7 |
| 20260507004417 | 60 | 193 | 1.0 | 5.0 | 0.00 | 0.03 | 0.03 | 43 | 1017.6 |
| 20260507003903 | 60 | 190 | 1.0 | 5.0 | 0.00 | 0.03 | 0.03 | 42 | 1017.6 |
| 20260507003603 | 60 | 185 | 2.0 | 5.0 | 0.00 | 0.03 | 0.03 | 40 | 1017.6 |
| 20260507003303 | 60 | 192 | 2.0 | 6.0 | 0.00 | 0.03 | 0.03 | 40 | 1017.5 |
| 20260507003003 | 60 | 190 | 2.0 | 6.0 | 0.00 | 0.03 | 0.03 | 41 | 1017.6 |
| 20260507002703 | 60 | 194 | 2.0 | 6.0 | 0.00 | 0.03 | 0.03 | 40 | 1017.6 |
| 20260507002404 | 60 | 191 | 2.0 | 6.0 | 0.00 | 0.03 | 0.03 | 40 | 1017.6 |
| 20260507002317 | 60 | 181 | 2.0 | 6.0 | 0.00 | 0.03 | 0.03 | 39 | 1017.6 |
| 20260507001803 | 60 | 182 | 2.0 | 7.0 | 0.00 | 0.03 | 0.03 | 40 | 1017.5 |
| 20260507001503 | 60 | 176 | 3.0 | 7.0 | 0.00 | 0.03 | 0.03 | 39 | 1017.5 |
| 20260507001203 | 60 | 176 | 3.0 | 7.0 | 0.00 | 0.03 | 0.03 | 39 | 1017.5 |
| 20260507000903 | 60 | 187 | 3.0 | 7.0 | 0.00 | 0.03 | 0.03 | 40 | 1017.5 |
| 20260507000603 | 60 | 179 | 3.0 | 7.0 | 0.00 | 0.03 | 0.03 | 39 | 1017.5 |
| 20260507000303 | 60 | 208 | 3.0 | 7.0 | 0.00 | 0.03 | 0.03 | 38 | 1017.5 |
| 20260507000003 | 60 | 199 | 3.0 | 7.0 | 0.00 | 0.03 | 0.03 | 39 | 1017.5 |
| 20260506235703 | 60 | 266 | 4.0 | 8.0 | 0.00 | 0.03 | 0.03 | 38 | 1017.5 |
| 20260506235403 | 60 | 280 | 4.0 | 8.0 | 0.00 | 0.03 | 0.03 | 39 | 1017.5 |
| 20260506235103 | 60 | 273 | 3.0 | 8.0 | 0.00 | 0.03 | 0.03 | 38 | 1017.5 |
| 20260506234803 | 60 | 234 | 3.0 | 7.0 | 0.00 | 0.03 | 0.03 | 38 | 1017.5 |
| 20260506234718 | 61 | 213 | 3.0 | 7.0 | 0.00 | 0.03 | 0.03 | 38 | 1017.6 |
| 20260506234418 | 61 | 173 | 2.0 | 6.0 | 0.00 | 0.03 | 0.03 | 39 | 1017.6 |
| 20260506233903 | 61 | 187 | 2.0 | 7.0 | 0.00 | 0.03 | 0.03 | 38 | 1017.6 |
| 20260506233818 | 61 | 186 | 2.0 | 7.0 | 0.00 | 0.03 | 0.03 | 38 | 1017.6 |
| 20260506233303 | 61 | 210 | 3.0 | 7.0 | 0.00 | 0.03 | 0.03 | 38 | 1017.6 |
| 20260506233003 | 61 | 230 | 2.0 | 7.0 | 0.00 | 0.03 | 0.03 | 38 | 1017.6 |
| 20260506232703 | 61 | 235 | 3.0 | 7.0 | 0.00 | 0.03 | 0.03 | 37 | 1017.5 |
| 20260506232403 | 61 | 249 | 3.0 | 7.0 | 0.00 | 0.03 | 0.03 | 36 | 1017.6 |
| 20260506232103 | 61 | 194 | 2.0 | 6.0 | 0.00 | 0.03 | 0.03 | 38 | 1017.5 |
| 20260506231803 | 61 | 217 | 3.0 | 8.0 | 0.00 | 0.03 | 0.03 | 38 | 1017.5 |
| 20260506231718 | 61 | 266 | 3.0 | 10.0 | 0.00 | 0.03 | 0.03 | 37 | 1017.5 |
| 20260506231203 | 60 | 318 | 4.0 | 11.0 | 0.00 | 0.03 | 0.03 | 39 | 1017.5 |
| 20260506230903 | 60 | 317 | 5.0 | 11.0 | 0.00 | 0.03 | 0.03 | 37 | 1017.4 |
| 20260506230603 | 60 | 312 | 5.0 | 11.0 | 0.00 | 0.03 | 0.03 | 38 | 1017.5 |
| 20260506230517 | 60 | 320 | 5.0 | 11.0 | 0.00 | 0.03 | 0.03 | 38 | 1017.5 |
| 20260506230003 | 60 | 298 | 4.0 | 11.0 | 0.00 | 0.03 | 0.03 | 38 | 1017.5 |
| 20260506225703 | 61 | 283 | 4.0 | 8.0 | 0.00 | 0.03 | 0.03 | 38 | 1017.5 |
| 20260506225403 | 61 | 261 | 3.0 | 8.0 | 0.00 | 0.03 | 0.03 | 38 | 1017.6 |
| 20260506225103 | 61 | 269 | 4.0 | 8.0 | 0.00 | 0.03 | 0.03 | 36 | 1017.5 |
| 20260506224803 | 61 | 243 | 4.0 | 8.0 | 0.00 | 0.03 | 0.03 | 38 | 1017.5 |
| 20260506224503 | 61 | 239 | 4.0 | 10.0 | 0.00 | 0.03 | 0.03 | 38 | 1017.5 |
| 20260506224203 | 61 | 238 | 4.0 | 10.0 | 0.00 | 0.03 | 0.03 | 37 | 1017.5 |
| 20260506224118 | 61 | 228 | 3.0 | 10.0 | 0.00 | 0.03 | 0.03 | 37 | 1017.5 |
| 20260506223603 | 61 | 276 | 4.0 | 10.0 | 0.00 | 0.03 | 0.03 | 39 | 1017.4 |
| 20260506223303 | 61 | 301 | 4.0 | 11.0 | 0.00 | 0.03 | 0.03 | 38 | 1017.4 |
| 20260506223217 | 61 | 308 | 4.0 | 11.0 | 0.00 | 0.03 | 0.03 | 38 | 1017.5 |
| 20260506222703 | 61 | 284 | 4.0 | 11.0 | 0.00 | 0.03 | 0.03 | 37 | 1017.4 |
| 20260506222403 | 62 | 196 | 3.0 | 8.0 | 0.00 | 0.03 | 0.03 | 38 | 1017.4 |
| 20260506222103 | 62 | 206 | 3.0 | 8.0 | 0.00 | 0.03 | 0.03 | 38 | 1017.5 |
| 20260506221803 | 62 | 206 | 3.0 | 8.0 | 0.00 | 0.03 | 0.03 | 38 | 1017.5 |
| 20260506221504 | 62 | 296 | 4.0 | 9.0 | 0.00 | 0.03 | 0.03 | 39 | 1017.5 |
| 20260506221203 | 61 | 328 | 4.0 | 15.0 | 0.00 | 0.03 | 0.03 | 41 | 1017.5 |
| 20260506221117 | 61 | 326 | 5.0 | 15.0 | 0.00 | 0.03 | 0.03 | 41 | 1017.5 |
| 20260506220603 | 61 | 348 | 5.0 | 15.0 | 0.00 | 0.03 | 0.03 | 37 | 1017.6 |
| 20260506220303 | 61 | 285 | 4.0 | 9.0 | 0.00 | 0.03 | 0.03 | 38 | 1017.6 |
| 20260506220003 | 62 | 227 | 3.0 | 9.0 | 0.00 | 0.03 | 0.03 | 39 | 1017.6 |
| 20260506215703 | 61 | 301 | 4.0 | 12.0 | 0.00 | 0.03 | 0.03 | 39 | 1017.6 |
| 20260506215403 | 61 | 322 | 4.0 | 12.0 | 0.00 | 0.03 | 0.03 | 39 | 1017.6 |
| 20260506215318 | 61 | 321 | 4.0 | 12.0 | 0.00 | 0.03 | 0.03 | 39 | 1017.6 |
| 20260506214803 | 61 | 316 | 4.0 | 12.0 | 0.00 | 0.03 | 0.03 | 39 | 1017.7 |
| 20260506214503 | 61 | 258 | 3.0 | 11.0 | 0.00 | 0.03 | 0.03 | 39 | 1017.8 |
| 20260506214203 | 61 | 300 | 4.0 | 11.0 | 0.00 | 0.03 | 0.03 | 39 | 1017.8 |
| 20260506213903 | 61 | 299 | 4.0 | 11.0 | 0.00 | 0.03 | 0.03 | 38 | 1017.8 |
| 20260506213603 | 61 | 316 | 6.0 | 12.0 | 0.00 | 0.03 | 0.03 | 40 | 1017.9 |
| 20260506213303 | 61 | 312 | 6.0 | 12.0 | 0.00 | 0.03 | 0.03 | 38 | 1017.9 |
| 20260506213217 | 61 | 311 | 5.0 | 12.0 | 0.00 | 0.03 | 0.03 | 38 | 1017.9 |
| 20260506212703 | 61 | 294 | 5.0 | 12.0 | 0.00 | 0.03 | 0.03 | 36 | 1018.0 |
| 20260506212618 | 61 | 281 | 4.0 | 12.0 | 0.00 | 0.03 | 0.03 | 39 | 1018.0 |
| 20260506212103 | 61 | 293 | 4.0 | 12.0 | 0.00 | 0.03 | 0.03 | 40 | 1018.0 |
| 20260506211803 | 61 | 269 | 4.0 | 12.0 | 0.00 | 0.03 | 0.03 | 37 | 1018.0 |
| 20260506211503 | 61 | 279 | 4.0 | 11.0 | 0.00 | 0.03 | 0.03 | 40 | 1018.0 |
| 20260506211417 | 61 | 287 | 4.0 | 11.0 | 0.00 | 0.03 | 0.03 | 41 | 1018.0 |
| 20260506210903 | 62 | 246 | 3.0 | 11.0 | 0.00 | 0.03 | 0.03 | 36 | 1018.1 |
| 20260506210817 | 62 | 252 | 4.0 | 11.0 | 0.00 | 0.03 | 0.03 | 36 | 1018.1 |
| 20260506210303 | 61 | 332 | 4.0 | 12.0 | 0.00 | 0.03 | 0.03 | 39 | 1018.3 |
| 20260506210003 | 60 | 339 | 5.0 | 12.0 | 0.00 | 0.03 | 0.03 | 41 | 1018.2 |
| 20260506205703 | 60 | 343 | 4.0 | 12.0 | 0.00 | 0.04 | 0.03 | 40 | 1018.3 |
| 20260506205403 | 61 | 305 | 3.0 | 12.0 | 0.00 | 0.04 | 0.03 | 37 | 1018.3 |
| 20260506205103 | 61 | 271 | 3.0 | 7.0 | 0.00 | 0.04 | 0.03 | 40 | 1018.3 |
| 20260506204803 | 61 | 242 | 3.0 | 7.0 | 0.00 | 0.04 | 0.03 | 40 | 1018.4 |
| 20260506204503 | 61 | 301 | 3.0 | 10.0 | 0.00 | 0.04 | 0.03 | 41 | 1018.3 |
| 20260506204203 | 61 | 334 | 4.0 | 13.0 | 0.00 | 0.04 | 0.03 | 40 | 1018.3 |
| 20260506203903 | 60 | 321 | 5.0 | 13.0 | 0.00 | 0.05 | 0.03 | 39 | 1018.4 |
| 20260506203603 | 60 | 306 | 5.0 | 13.0 | 0.00 | 0.06 | 0.03 | 40 | 1018.4 |
| 20260506203303 | 61 | 269 | 4.0 | 13.0 | 0.00 | 0.06 | 0.03 | 38 | 1018.4 |
| 20260506203003 | 61 | 223 | 3.0 | 8.0 | 0.00 | 0.06 | 0.03 | 41 | 1018.5 |
| 20260506202703 | 61 | 222 | 3.0 | 8.0 | 0.00 | 0.06 | 0.03 | 38 | 1018.5 |
| 20260506202403 | 62 | 229 | 3.0 | 9.0 | 0.00 | 0.06 | 0.03 | 38 | 1018.5 |
| 20260506202317 | 62 | 224 | 3.0 | 9.0 | 0.00 | 0.07 | 0.03 | 40 | 1018.5 |
| 20260506201803 | 60 | 291 | 4.0 | 11.0 | 0.00 | 0.07 | 0.03 | 37 | 1018.5 |
| 20260506201503 | 60 | 288 | 4.0 | 11.0 | 0.00 | 0.07 | 0.03 | 39 | 1018.5 |
| 20260506201203 | 60 | 246 | 3.0 | 11.0 | 0.00 | 0.07 | 0.03 | 36 | 1018.6 |
| 20260506200903 | 61 | 171 | 3.0 | 8.0 | 0.00 | 0.07 | 0.03 | 38 | 1018.6 |
| 20260506200603 | 61 | 202 | 3.0 | 9.0 | 0.00 | 0.07 | 0.03 | 41 | 1018.5 |
| 20260506200303 | 61 | 286 | 4.0 | 16.0 | 0.00 | 0.07 | 0.03 | 39 | 1018.6 |
| 20260506200003 | 60 | 290 | 4.0 | 16.0 | 0.00 | 0.08 | 0.03 | 38 | 1018.5 |
| 20260506195703 | 60 | 319 | 5.0 | 16.0 | 0.00 | 0.09 | 0.03 | 39 | 1018.7 |
| 20260506195618 | 60 | 312 | 4.0 | 16.0 | 0.00 | 0.09 | 0.03 | 37 | 1018.7 |
| 20260506195103 | 60 | 272 | 4.0 | 11.0 | 0.00 | 0.10 | 0.03 | 37 | 1018.8 |
| 20260506195017 | 60 | 279 | 4.0 | 11.0 | 0.00 | 0.10 | 0.03 | 40 | 1018.8 |
| 20260506194503 | 60 | 265 | 4.0 | 12.0 | 0.00 | 0.12 | 0.03 | 39 | 1018.8 |
| 20260506194203 | 60 | 280 | 4.0 | 12.0 | 0.00 | 0.13 | 0.03 | 39 | 1018.8 |
| 20260506193903 | 60 | 262 | 4.0 | 10.0 | 0.00 | 0.13 | 0.03 | 40 | 1018.8 |
| 20260506193603 | 60 | 266 | 4.0 | 10.0 | 0.00 | 0.14 | 0.03 | 39 | 1018.8 |
| 20260506193303 | 61 | 252 | 3.0 | 9.0 | 0.00 | 0.14 | 0.03 | 41 | 1018.8 |
| 20260506193003 | 60 | 261 | 3.0 | 9.0 | 0.00 | 0.15 | 0.03 | 41 | 1018.9 |
| 20260506192703 | 60 | 259 | 3.0 | 9.0 | 0.00 | 0.16 | 0.03 | 40 | 1019.0 |
| 20260506192403 | 60 | 240 | 2.0 | 8.0 | 0.00 | 0.17 | 0.03 | 39 | 1019.0 |
| 20260506192103 | 59 | 264 | 3.0 | 8.0 | 0.00 | 0.18 | 0.03 | 42 | 1019.0 |
| 20260506191803 | 59 | 324 | 4.0 | 9.0 | 0.00 | 0.19 | 0.03 | 39 | 1019.0 |
| 20260506191503 | 59 | 311 | 3.0 | 9.0 | 0.00 | 0.20 | 0.03 | 39 | 1019.1 |
| 20260506191417 | 59 | 316 | 4.0 | 9.0 | 0.00 | 0.20 | 0.03 | 38 | 1019.1 |
| 20260506190903 | 60 | 237 | 3.0 | 9.0 | 0.00 | 0.21 | 0.03 | 40 | 1019.0 |
| 20260506190818 | 60 | 209 | 2.0 | 8.0 | 0.00 | 0.21 | 0.03 | 40 | 1019.0 |
| 20260506190303 | 60 | 245 | 3.0 | 10.0 | 0.00 | 0.22 | 0.03 | 41 | 1019.0 |
| 20260506190218 | 60 | 249 | 3.0 | 10.0 | 0.00 | 0.22 | 0.03 | 42 | 1019.1 |
| 20260506185917 | 59 | 250 | 3.0 | 10.0 | 0.00 | 0.22 | 0.03 | 39 | 1019.1 |
| 20260506185403 | 59 | 233 | 2.0 | 10.0 | 0.00 | 0.22 | 0.03 | 40 | 1019.2 |
| 20260506185103 | 58 | 206 | 2.0 | 6.0 | 0.00 | 0.23 | 0.03 | 43 | 1019.1 |
| 20260506184803 | 58 | 260 | 3.0 | 12.0 | 0.00 | 0.24 | 0.03 | 42 | 1019.2 |
| 20260506184503 | 58 | 260 | 4.0 | 12.0 | 0.00 | 0.26 | 0.03 | 40 | 1019.3 |
| 20260506184416 | 58 | 266 | 4.0 | 12.0 | 0.00 | 0.26 | 0.03 | 42 | 1019.2 |
| 20260506183903 | 58 | 217 | 3.0 | 8.0 | 0.00 | 0.26 | 0.03 | 41 | 1019.2 |
| 20260506183604 | 58 | 207 | 3.0 | 8.0 | 0.00 | 0.26 | 0.03 | 41 | 1019.3 |
| 20260506183303 | 59 | 336 | 3.0 | 12.0 | 0.00 | 0.26 | 0.03 | 40 | 1019.4 |
| 20260506183003 | 59 | 315 | 4.0 | 12.0 | 0.00 | 0.26 | 0.03 | 41 | 1019.4 |
| 20260506182704 | 59 | 312 | 3.0 | 12.0 | 0.00 | 0.26 | 0.03 | 40 | 1019.4 |
| 20260506182403 | 59 | 256 | 2.0 | 12.0 | 0.00 | 0.26 | 0.03 | 38 | 1019.4 |
| 20260506182103 | 60 | 180 | 2.0 | 7.0 | 0.00 | 0.26 | 0.03 | 41 | 1019.5 |
| 20260506181803 | 59 | 282 | 4.0 | 16.0 | 0.00 | 0.26 | 0.03 | 42 | 1019.4 |
| 20260506181503 | 58 | 314 | 4.0 | 16.0 | 0.00 | 0.27 | 0.03 | 41 | 1019.3 |
| 20260506181203 | 58 | 318 | 3.0 | 16.0 | 0.00 | 0.27 | 0.03 | 40 | 1019.4 |
| 20260506180903 | 58 | 321 | 3.0 | 16.0 | 0.00 | 0.27 | 0.03 | 39 | 1019.4 |
| 20260506180603 | 58 | 304 | 3.0 | 10.0 | 0.00 | 0.27 | 0.03 | 41 | 1019.5 |
| 20260506180303 | 58 | 257 | 4.0 | 10.0 | 0.00 | 0.27 | 0.03 | 39 | 1019.5 |
| 20260506180004 | 59 | 208 | 4.0 | 10.0 | 0.00 | 0.27 | 0.03 | 39 | 1019.5 |
| 20260506175703 | 59 | 180 | 3.0 | 8.0 | 0.00 | 0.27 | 0.03 | 41 | 1019.6 |
| 20260506175403 | 58 | 92 | 3.0 | 8.0 | 0.00 | 0.27 | 0.03 | 41 | 1019.5 |
| 20260506175103 | 58 | 346 | 4.0 | 12.0 | 0.00 | 0.27 | 0.03 | 41 | 1019.6 |